Regional Weather Roundup
Issued by NWS

Home | Current Version | Previous Version | Graphics & Text | Print | Product List | Glossary Off
Versions: 1 2 3 4 5 6 7 8 9 10 11 12 13 14 15 16 17 18 19 20 21 22 23 24 25 26 27 28 29 30 31 32 33 34 35 36 37 38 39 40 41 42 43 44 45 46 47 48 49 50

913
ASUS43 KTOP 292208
RWRKS

WEATHER ROUNDUP FOR KANSAS
NATIONAL WEATHER SERVICE GOODLAND KS
500 PM CDT MON AUG 29 2016

NOTE:  "FAIR" INDICATES FEW OR NO CLOUDS BELOW 12,000 FEET WITH NO
SIGNIFICANT WEATHER AND/OR OBSTRUCTIONS TO VISIBILITY.

KSZ001>006-013>018-027>032-041>047-292300-
NORTHWEST KANSAS

CITY           SKY/WX    TMP DP  RH WIND       PRES   REMARKS
GOODLAND       CLOUDY    73  61  65 S13       30.23F
HAYS           CLOUDY    68  57  68 E16       30.20R
HILL CITY      CLOUDY    75  69  81 CALM      30.19R
RUSSELL        RAIN      69  66  90 E3        30.18S FOG
$$

KSZ061>065-074>080-084>089-292300-
SOUTHWEST KANSAS

CITY           SKY/WX    TMP DP  RH WIND       PRES   REMARKS
DODGE CITY     PTSUNNY   77  68  73 NE5       30.19R
ELKHART          N/A     72  62  71 SE6         N/A
GARDEN CITY    MOSUNNY   76  63  64 SE5       30.20R
GREAT BEND     CLOUDY    70  61  73 NE17G25   30.18R
LIBERAL        CLOUDY    73  64  73 SW3       30.21S
PRATT          CLOUDY    73  66  76 SE12      30.15R
$$

KSZ066>073-081>083-090>101-292300-
SOUTHEAST KANSAS

CITY           SKY/WX    TMP DP  RH WIND       PRES   REMARKS
CHANUTE        SUNNY     89  72  56 S5        30.09F HX  96
COFFEYVILLE    MOSUNNY   90  72  55 CALM      30.07F HX  97
HUTCHINSON     MOSUNNY   86  66  51 SE12      30.12F
MEDICINE LODGE   N/A     81  67  62 E10       30.12R
NEWTON         CLOUDY    80  69  69 E15       30.14R
PARSONS        MOSUNNY   88  71  57 N3        30.09F
WICHITA INTL   PTSUNNY   87  70  56 SE10      30.11S
WICHITA JABRA  SUNNY     83  70  64 SE8       30.11F
WICHITA MCCONL MOSUNNY   86  69  56 SE9       30.11F
WINFIELD       CLOUDY    85  69  58 SE8       30.11F
$$

KSZ007>012-019>026-033>040-048>060-102>105-292300-
NORTHEAST KANSAS

CITY           SKY/WX    TMP DP  RH WIND       PRES   REMARKS
CONCORDIA      CLOUDY    76  67  73 W7        30.16R
EMPORIA        LGT RAIN  76  70  82 CALM      30.12F
LAWRENCE       MOSUNNY   90  70  51 SE7       30.10F HX  95
MANHATTAN      PTSUNNY   87  70  56 S6        30.10S
MARYSVILLE     CLOUDY    84  70  61 S7        30.12S
OLATHE IND     SUNNY     89  68  49 SE6       30.12F
OLATHE EXE     MOSUNNY   87  68  52 SE8       30.11F
SALINA         PTSUNNY   77  72  84 NW8       30.13F
TOPEKA BILLARD SUNNY     89  70  53 SE9       30.10F
TOPEKA FORBES  SUNNY     91  70  49 E9        30.11F HX  96
$$




USA.gov is the U.S. government's official web portal to all federal, state and local government web resources and services.